Location: Cabri�res
(43.7840°N, 5.4986°E)
Time: 00:01:43
(UTC+00:00)

Cosmos 2058 Rocket - Pass Details

Date: 09 April 2020
Orbit: 610 x 640 km, 82.5° (Epoch: 02 June)

Event Time Altitude Azimuth Distance (km) Brightness Sun altitude
Rises 18:51:59 0° 165° (SSE) 2,930 6.2 -7.3°
Reaches altitude 10° 18:54:21 10° 156° (SSE) 2,026 5.3 -7.7°
Maximum altitude 18:58:26 35° 91° (E) 1,034 3.7 -8.4°
Drops below altitude 10° 19:02:32 10° 26° (NNE) 2,036 5.7 -9.1°
Sets 19:04:55 0° 17° (NNE) 2,946 6.6 -9.5°
